Van Lear, KY

12:17 PM EST on February 20, 2017 (GMT -0500)
Prestonsburg

Weather History for KK22 - February, 2013

Change the Weather History Date:

Monday, February 11, 2013

  Actual Average (KJKL) Record (KJKL)
Temperature  
Mean Temperature 51 °F -  
Max Temperature 59 °F 46 °F 74 °F (1999)
Min Temperature 43 °F 29 °F 1 °F (1981)
Degree Days  
Heating Degree Days 14    
Growing Degree Days 1 (Base 50)    
Moisture  
Dew Point 36 °F    
Average Humidity 54    
Maximum Humidity 84    
Minimum Humidity 30    
Precipitation  
Precipitation 0.00 in - - ()
Sea Level Pressure  
Sea Level Pressure 29.94 in    
Wind  
Wind Speed 11 mph (WSW)    
Max Wind Speed 23 mph    
Max Gust Speed 33 mph    
Visibility 10 miles    
Events Rain    
Averages and records for this station are not official NWS values.
T = Trace of Precipitation, MM = Missing Value Source: NWS Daily Summary

Daily Weather History Graph

Daily Weather History Graph

Search for Another Location

Airport or City:

Trip Planner

Search our weather history database for the weather conditions in past years. The results will help you decide how hot, cold, wet, or windy it might be!

Date:

Astronomy

Feb. 11, 2013 Rise Set
Actual Time 7:24 AM EST 6:05 PM EST
Civil Twilight 6:57 AM EST 6:32 PM EST
Nautical Twilight 6:26 AM EST 7:03 PM EST
Astronomical Twilight 5:56 AM EST 7:34 PM EST
Moon 7:50 AM EST (2/11) 7:57 PM EST (2/11)
Length of Visible Light 11h 35m
Length of Day
10h 41m
Waxing Crescent, 3% of the Moon is Illuminated
Feb 11
Waxing Crescent
Feb 17
First Quarter
Feb 25
Full
Mar 4
Last Quarter
Mar 11
New

Hourly Weather History & Observations

Time (EST) Temp. Windchill Dew Point Humidity Pressure Visibility Wind Dir Wind Speed Gust Speed Precip Events Conditions
12:15 AM 51.8 °F - 42.4 °F 70% 29.90 in 10.0 mi South 12.7 mph 21.9 mph N/A   Overcast
12:35 AM 52.7 °F - 42.8 °F 69% 29.89 in 10.0 mi South 12.7 mph - N/A   Overcast
12:55 AM 52.7 °F - 43.2 °F 70% 29.89 in 10.0 mi South 13.8 mph 18.4 mph N/A   Overcast
1:15 AM 52.7 °F - 43.5 °F 71% 29.89 in 10.0 mi South 8.1 mph - N/A   Overcast
1:35 AM 53.1 °F - 43.3 °F 70% 29.90 in 10.0 mi SSW 4.6 mph - N/A   Overcast
1:55 AM 52.7 °F - 43.7 °F 71% 29.90 in 10.0 mi South 4.6 mph - N/A   Overcast
2:15 AM 52.2 °F - 44.1 °F 74% 29.90 in 10.0 mi South 5.8 mph - N/A   Overcast
2:35 AM 53.4 °F - 44.2 °F 71% 29.89 in 10.0 mi South 6.9 mph - N/A   Overcast
2:55 AM 53.8 °F - 44.1 °F 70% 29.89 in 10.0 mi Calm Calm - N/A   Overcast
3:15 AM 53.4 °F - 44.1 °F 71% 29.89 in 10.0 mi South 3.5 mph - N/A   Overcast
3:35 AM 54.1 °F - 44.4 °F 70% 29.89 in 10.0 mi Calm Calm - N/A   Overcast
3:55 AM 54.3 °F - 44.4 °F 69% 29.89 in 10.0 mi Calm Calm - N/A   Overcast
4:15 AM 55.4 °F - 45.5 °F 69% 29.89 in 10.0 mi SW 5.8 mph - N/A   Overcast
4:35 AM 55.9 °F - 46.8 °F 71% 29.89 in 10.0 mi SW 6.9 mph - N/A   Overcast
4:55 AM 56.3 °F - 47.8 °F 73% 29.89 in 10.0 mi SSW 9.2 mph - N/A   Overcast
5:15 AM 56.5 °F - 48.9 °F 76% 29.89 in 10.0 mi SW 12.7 mph 17.3 mph N/A Rain Light Rain
5:35 AM 57.0 °F - 49.5 °F 76% 29.91 in 10.0 mi WSW 9.2 mph 18.4 mph N/A   Overcast
5:55 AM 56.5 °F - 49.5 °F 77% 29.90 in 10.0 mi SW 5.8 mph - N/A   Overcast
6:15 AM 56.3 °F - 50.0 °F 79% 29.91 in 10.0 mi SW 8.1 mph - N/A   Overcast
6:55 AM 55.4 °F - 50.7 °F 84% 29.91 in 10.0 mi WSW 10.4 mph - N/A   Overcast
7:15 AM 55.6 °F - 50.7 °F 84% 29.91 in 10.0 mi WSW 9.2 mph - N/A   Overcast
7:35 AM 55.8 °F - 50.9 °F 84% 29.91 in 10.0 mi SW 11.5 mph 17.3 mph N/A   Overcast
7:55 AM 55.8 °F - 50.9 °F 84% 29.91 in 10.0 mi SW 9.2 mph 17.3 mph N/A   Mostly Cloudy
8:15 AM 56.3 °F - 50.9 °F 82% 29.92 in 10.0 mi WSW 10.4 mph - N/A   Mostly Cloudy
8:35 AM 56.5 °F - 50.9 °F 82% 29.93 in 10.0 mi WSW 11.5 mph 17.3 mph N/A   Overcast
8:55 AM 56.7 °F - 50.7 °F 80% 29.93 in 10.0 mi WSW 17.3 mph 24.2 mph N/A   Overcast
9:15 AM 57.2 °F - 50.5 °F 78% 29.93 in 10.0 mi WSW 18.4 mph 26.5 mph N/A   Mostly Cloudy
9:35 AM 57.2 °F - 47.8 °F 71% 29.94 in 10.0 mi WSW 13.8 mph 21.9 mph N/A   Mostly Cloudy
9:55 AM 57.6 °F - 45.9 °F 65% 29.93 in 10.0 mi WSW 12.7 mph 24.2 mph N/A   Scattered Clouds
10:15 AM 57.9 °F - 45.0 °F 62% 29.92 in 10.0 mi WSW 13.8 mph 18.4 mph N/A   Clear
10:35 AM 58.8 °F - 40.3 °F 50% 29.93 in 10.0 mi WSW 13.8 mph 23.0 mph N/A   Clear
10:55 AM 59.0 °F - 36.0 °F 42% 29.93 in 10.0 mi WSW 23.0 mph 26.5 mph N/A   Clear
11:15 AM 59.9 °F - 35.8 °F 41% 29.94 in 10.0 mi West 16.1 mph 26.5 mph N/A   Clear
11:35 AM 58.8 °F - 35.6 °F 42% 29.95 in 10.0 mi West 13.8 mph 27.6 mph N/A   Clear
11:55 AM 58.8 °F - 33.6 °F 39% 29.95 in 10.0 mi West 13.8 mph 27.6 mph N/A   Clear
12:15 PM 58.8 °F - 33.4 °F 38% 29.94 in 10.0 mi West 12.7 mph 26.5 mph N/A   Clear
12:35 PM 58.3 °F - 31.8 °F 37% 29.92 in 10.0 mi SW 21.9 mph 31.1 mph N/A   Clear
12:55 PM 57.7 °F - 32.0 °F 38% 29.92 in 10.0 mi West 23.0 mph 33.4 mph N/A   Clear
1:15 PM 57.6 °F - 32.5 °F 39% 29.92 in 10.0 mi West 13.8 mph 27.6 mph N/A   Clear
1:35 PM 57.9 °F - 32.4 °F 38% 29.92 in 10.0 mi West 20.7 mph 27.6 mph N/A   Clear
1:55 PM 57.4 °F - 31.1 °F 37% 29.93 in 10.0 mi West 18.4 mph 32.2 mph N/A   Clear
2:15 PM 57.6 °F - 31.1 °F 37% 29.93 in 10.0 mi WSW 13.8 mph 26.5 mph N/A   Clear
2:35 PM 57.4 °F - 27.9 °F 32% 29.93 in 10.0 mi WSW 18.4 mph 26.5 mph N/A   Clear
2:55 PM 56.8 °F - 25.2 °F 30% 29.93 in 10.0 mi West 19.6 mph 27.6 mph N/A   Clear
3:15 PM 56.5 °F - 26.2 °F 31% 29.94 in 10.0 mi West 12.7 mph 27.6 mph N/A   Clear
3:35 PM 56.3 °F - 26.4 °F 32% 29.93 in 10.0 mi WSW 15.0 mph 31.1 mph N/A   Clear
3:55 PM 55.9 °F - 27.0 °F 33% 29.94 in 10.0 mi West 13.8 mph 26.5 mph N/A   Clear
4:15 PM 55.6 °F - 26.1 °F 32% 29.94 in 10.0 mi WSW 16.1 mph 25.3 mph N/A   Clear
4:35 PM 55.4 °F - 25.0 °F 31% 29.93 in 10.0 mi WSW 18.4 mph 24.2 mph N/A   Clear
4:55 PM 54.5 °F - 24.3 °F 31% 29.94 in 10.0 mi WSW 16.1 mph 24.2 mph N/A   Clear
5:55 PM 52.9 °F - 22.1 °F 30% 29.94 in 10.0 mi WSW 10.4 mph 21.9 mph N/A   Clear
6:15 PM 51.8 °F - 21.7 °F 31% 29.94 in 10.0 mi WSW 13.8 mph 21.9 mph N/A   Clear
6:35 PM 51.1 °F - 21.6 °F 31% 29.95 in 10.0 mi WSW 12.7 mph 18.4 mph N/A   Clear
6:55 PM 50.4 °F - 21.2 °F 32% 29.96 in 10.0 mi West 16.1 mph 24.2 mph N/A   Clear
7:15 PM 50.0 °F - 21.2 °F 32% 29.98 in 10.0 mi West 12.7 mph 24.2 mph N/A   Clear
7:35 PM 49.5 °F - 21.4 °F 33% 29.99 in 10.0 mi West 8.1 mph 19.6 mph N/A   Clear
7:55 PM 48.7 °F - 21.6 °F 34% 30.01 in 10.0 mi West 8.1 mph 17.3 mph N/A   Clear
8:15 PM 48.4 °F - 21.2 °F 34% 30.02 in 10.0 mi West 12.7 mph 24.2 mph N/A   Clear
8:35 PM 47.5 °F - 21.6 °F 36% 30.03 in 10.0 mi West 11.5 mph 17.3 mph N/A   Clear
8:55 PM 47.3 °F - 22.5 °F 38% 30.04 in 10.0 mi West 11.5 mph 18.4 mph N/A   Clear
9:15 PM 46.4 °F 41.9 °F 23.4 °F 40% 30.04 in 10.0 mi West 9.2 mph 17.3 mph N/A   Clear
9:35 PM 46.0 °F 40.6 °F 23.7 °F 42% 30.05 in 10.0 mi West 11.5 mph - N/A   Clear
9:55 PM 45.7 °F 41.0 °F 24.4 °F 43% 30.06 in 10.0 mi West 9.2 mph 24.2 mph N/A   Clear
10:15 PM 45.7 °F 40.2 °F 25.2 °F 45% 30.05 in 10.0 mi West 11.5 mph 19.6 mph N/A   Clear
10:35 PM 44.6 °F 38.8 °F 25.2 °F 46% 30.05 in 10.0 mi WNW 11.5 mph 16.1 mph N/A   Clear
11:15 PM 44.1 °F 38.6 °F 25.7 °F 49% 30.07 in 10.0 mi West 10.4 mph 16.1 mph N/A   Clear
11:35 PM 43.9 °F 39.9 °F 25.7 °F 49% 30.08 in 10.0 mi West 6.9 mph - N/A   Clear
11:55 PM 43.3 °F 38.1 °F 25.7 °F 50% 30.09 in 10.0 mi West 9.2 mph - N/A   Clear